Find Starlink 3934

NORAD ID: 52675 Int'l Des: 2022-053 Owner: SPXS Country: US Constellation: starlink operational
LEOCIRCULAR

Live Position

Loading 3D Globe...

About Starlink 3934

Description loading...

Upcoming Passes

Passes for default location (London). Set your location on the main map for personalized predictions.

Altitude History

Loading altitude history...

Two-Line Element Set

1 52675U 22053V 26125.73220051 .00001139 00000-0 89591-4 0 9993
2 52675 53.2166 248.0478 0001280 75.0474 285.0660 15.08848329219783
Epoch: May 5, 2026 • Age: 13 hours

Current Status

Altitude 549.1 km
Velocity 7.59 km/s
Sub-Earth Point -29.78°S, 95.44°W
Launch Date May 18, 2022
Age 3.9 years
Type internet

Technical Details

Classification Payload
Mass 297.00 kg
Dry Mass 275.00 kg
Total Mass 297.00 kg
Length 0.20 m
Diameter 2.80 m
Span 9.00 m
Shape Box + pan
Manufacturer SPXS
Bus Type Starlink
Phase Status In Orbit
Owner/State SPXS/US

Most Searched